Home   Weather   Gorleben   Past weeks

Flag for Germany Past Weather in Gorleben, Lower Saxony, Germany — Yesterday and Last 2 Weeks

45 °F


Feels Like: 43 °F
Forecast: 41 / 54 °F
Wind: 3 mph from Southwest

Location: Fassberg

Current Time: Oct 26, 2016 at 11:36:08 PM

Latest Report: Oct 26, 2016 at 10:20 PM

Visibility: 2 mi

Pressure: 30.39 "Hg

Humidity: 93%

Dew Point: 43 °F

Location of GorlebenLocation

Past Weather in Gorleben — Graph


Gorleben Temperature Yesterday

Maximum temperature yesterday: 48 °F (at 2:20 PM)
Minimum temperature yesterday: 32 °F (at 11:20 PM)
Average temperature yesterday: 43 °F

High & Low Weather Summary for the Past Weeks

High63 °F (Oct 16, 2:20 PM)100% (Oct 16, 12:20 AM)30.39 "Hg (Oct 16, 12:20 AM)
Low30 °F (Oct 26, 12:20 AM)59% (Oct 16, 2:20 PM)29.77 "Hg (Oct 15, 5:20 AM)
Average46 °F89%30.05 "Hg
* Reported Oct 11 9:20 PM — Oct 26 9:20 PM, Gorleben, Weather by CustomWeather, © 2016

Note: Actual official high and low records may vary slightly from our data, if they occured in-between our weather recording intervals... More about our weather records


Gorleben Weather History for the Previous 24 Hours

Scroll right to see more
Time TempWeatherWind HumidityBarometerVisibility
9:20 PM
Wed, Oct 26
43 °FFog.1 mph93%30.39 "Hg2 mi
8:20 PM43 °FFog.1 mph93%30.36 "Hg3 mi
7:20 PM43 °FFog.1 mph93%30.36 "Hg2 mi
6:20 PM45 °FFog.No wind87%30.36 "Hg4 mi
6:01 PM46 °FPartly cloudy.2 mph82%30.36 "Hg4 mi
5:20 PM48 °FScattered clouds.5 mph76%30.36 "HgN/A
4:20 PM48 °FPartly sunny.3 mph76%30.36 "HgN/A
3:20 PM48 °FPartly sunny.2 mph76%30.36 "HgN/A
3:01 PM48 °FBroken clouds.5 mph76%30.36 "HgN/A
2:20 PM48 °FPartly sunny.7 mph76%30.36 "HgN/A
1:20 PM48 °FPartly sunny.5 mph82%30.39 "HgN/A
1:01 PM46 °FPartly sunny.5 mph87%30.39 "Hg5 mi
12:20 PM45 °FFog.5 mph100%30.39 "Hg2 mi
12:00 PM43 °FFog.2 mph93%30.39 "Hg2 mi
11:49 AM41 °FFog.1 mph100%30.39 "Hg1 mi
11:20 AM39 °FFog.1 mph100%30.39 "Hg0 mi
10:20 AM37 °FFog.1 mph100%30.39 "Hg0 mi
9:20 AM36 °FFog.1 mph100%30.39 "Hg0 mi
8:20 AM34 °FFog.2 mph100%30.39 "Hg0 mi
7:20 AM34 °FFog.No wind100%30.36 "Hg0 mi
6:20 AM34 °FFog.2 mph93%30.36 "Hg0 mi
5:20 AM34 °FFog.1 mph93%30.36 "Hg0 mi
4:20 AM34 °FFog.3 mph93%30.36 "Hg0 mi
3:20 AM34 °FFog.No wind100%30.36 "Hg0 mi
2:20 AM32 °FFog.1 mph100%30.36 "Hg0 mi
1:20 AM32 °FIce fog.1 mph100%30.36 "Hg1 mi
12:20 AM30 °FIce fog.1 mph100%30.36 "Hg1 mi
11:20 PM
Tue, Oct 25
32 °FIce fog.1 mph93%30.33 "Hg1 mi
Weather by CustomWeather, © 2016

See weather overviewHow to use our weather pages